Погода в Армасан-де-Пера

Португалия     37°06′11″N   8°21′46″W
темп.,
°C
ветер,
м/с
пор.,
м/с
влажн.,
%
обл.,
%
осадки,
мм/ч
давл.,
гПа
погр.,
м
12 апреля, пн
пн1201:00+14ссз467899 0.0 1019163
04:00+14ссз4478100 0.0 1019114
07:00+14св127596 0.0 1019122
10:00+17юв1268100 0.0 1020249
13:00+17ююв3272100 0.0 1021388
16:00+17ю227910 0.0 1021344
19:00+17юз1176100 0.0 1020166
22:00+16ссз117999 0.0 102235
13 апреля, вт
вт1301:00+16в2281100 0.0 102157
04:00+16в3386100 0.0 102073
07:00+16вюв568792 0.0 1021391
10:00+17юв447929 0.0 1022413
13:00+17юв448384 0.0 1021435
16:00+17юв3481100 0.0 1019334
19:00+17в1276100 0.0 1018124
22:00+17ссв2279100 0.0 101827
14 апреля, ср
ср1401:00+17с2379100 0.0 101673
04:00+16ссв1182100 0.0 101538
07:00+16ююз2283100 0.0 101583
10:00+17зюз4478100 0.0 1015352
13:00+16юз4483100 0.3 1015392
16:00+15зюз1187100 0.8 1014188
19:00+15зсз1191100 1.9 1014139
22:00+15ссз1190100 0.6 1014122
15 апреля, чт
чт1501:00+14в3393100 2.6 1014301
04:00+14в3493100 2.5 1012294
07:00+15юв3394100 5.8 1012312
10:00+15юв3388100 0.6 1013364
13:00+16ю3284100 0.6 1013411
16:00+16юз2283100 0.3 1013409
19:00+16ююв1183100 0.9 1013213
22:00+16в228698 0.1 1015216
16 апреля, пт
пт1601:00+15всв1189100 0.2 1015171
04:00+15ссв22881 0.0 1015128
07:00+14ссв22860 0.0 1015112
10:00+16вюв22793 0.0 1017308
13:00+16ю338323 0.0 1017388
16:00+17юз44787 0.0 1016398
19:00+18з567918 0.0 1016280
22:00+16сз568711 0.0 1017187